Location: Bacharowice
(49.9333°N, 19.5833°E)
Time: 13:10:20
(UTC+00:00)

Cosmos 1833 Rocket - Pass Details

Date: 11 May 2021
Orbit: 831 x 841 km, 71.0° (Epoch: 22 June)

Event Time Altitude Azimuth Distance (km) Brightness Sun altitude
Rises 20:56:47 0° 323° (NW) 3,407 7.4 -18.4°
Reaches altitude 10° 20:59:36 10° 311° (NW) 2,467 6.1 -18.6°
Maximum altitude 21:04:08 25° 257° (WSW) 1,627 4.3 -18.9°
Enters shadow 21:07:26 15° 213° (SSW) 2,112 4.4 -19.1°
